Capitol Logistics 2297


KDFW
Dallas-Fort Worth International Airport
Dallas, Texas, US
KSDF
Louisville International Airport-Standiford Field
Louisville, Kentucky, US

Activity Log

Date Flight Route Aircraft Duration
No Flights Yet

Route Details

Aircraft Information
Primary: Boeing 747-400BCF
Backup: Boeing 767-300BDSF
Date Restrictions
Between:Nov 16, 2019
Dec 31, 2019
Route Data
Distance: 637nm
Sched. Duration: 1h 29m
Avg. Duration: 0h 00m (-129m)
Times Flown: 0
Recm'd Route: AKUNA7 MLC FSM PENBE ALENN DAMEN5
Planned Altitude: 31,000ft
Origin Wx: KDFW 290953Z 35006KT 10SM FEW250 19/18 A3006 RMK AO2 SLP173 T01940178
Dest. Wx: KSDF 290956Z 19006KT 10SM FEW150 SCT200 BKN250 20/17 A2995 RMK AO2 SLP137 T02000172
Notes: SEASONAL FLIGHT | UPS SURGE OPS CONTRACT

Financial History
Total Freight: 0lbs
Average Load: 0lbs/flt
Fuel Used: 0lbs
Avg. Fuel Used: 0lbs/flt
Fuel Expense: $0
Avg. Fuel Expense: $0
Avg. Fuel Cost: $0/lbs
Total Gross Income: $0
Pilot Pay: $0
Total Expenses: $0
Total Revenue: $0
Average Revenue: $0